This is the latest recevied weather packets stored in our database for station/object FW0727. If no packets are shown the sender has not sent any weather packets the latest 10 day(s).
| Time | Temp. | Humidity | Pressure | Rain* | Wind** | Luminosity | Snow |
|---|---|---|---|---|---|---|---|
| 1777717122 | 12.22° C | 34% | 1021.2 hPa | - | - | - | - |
| 1777716777 | 12.22° C | 33% | 1021.2 hPa | - | - | - | - |
| 1777716103 | 11.67° C | 35% | 1021.4 hPa | - | - | - | - |
| 1777715759 | 11.67° C | 34% | 1021.4 hPa | - | - | - | - |
| 1777715402 | 11.67° C | 34% | 1021.3 hPa | - | - | - | - |
| 1777715048 | 12.22° C | 34% | 1021.3 hPa | - | - | - | - |
| 1777714375 | 12.22° C | 32% | 1021.3 hPa | - | - | - | - |
| 1777714031 | 12.78° C | 32% | 1021.2 hPa | - | - | - | - |
| 1777713679 | 12.78° C | 32% | 1021.3 hPa | - | - | - | - |
| 1777712997 | 13.33° C | 33% | 1021.1 hPa | - | - | - | - |
| 1777712644 | 13.33° C | 31% | 1021.1 hPa | - | - | - | - |
| 1777712290 | 13.33° C | 31% | 1021.2 hPa | - | - | - | - |
| 1777711617 | 13.89° C | 30% | 1021.2 hPa | - | - | - | - |
| 1777711266 | 13.33° C | 31% | 1021.2 hPa | - | - | - | - |
| 1777710921 | 13.33° C | 32% | 1021.2 hPa | - | - | - | - |
| 1777710577 | 13.33° C | 31% | 1021.2 hPa | - | - | - | - |
| 1777710233 | 13.89° C | 32% | 1021.3 hPa | - | - | - | - |
| 1777709888 | 13.33° C | 32% | 1021.3 hPa | - | - | - | - |
| 1777709536 | 12.78° C | 32% | 1021.4 hPa | - | - | - | - |
| 1777709183 | 12.78° C | 32% | 1021.4 hPa | - | - | - | - |
| 1777708502 | 12.22° C | 34% | 1021.5 hPa | - | - | - | - |
| 1777707821 | 12.22° C | 33% | 1021.5 hPa | - | - | - | - |
| 1777707468 | 12.22° C | 34% | 1021.6 hPa | - | - | - | - |
| 1777707115 | 12.22° C | 34% | 1021.6 hPa | - | - | - | - |
| 1777706433 | 11.67° C | 35% | 1021.6 hPa | - | - | - | - |
* Rain since midnight (hover to see other rain measurements)
** Current wind speed in m/s (hover to see current wind gust speed)